Regional Weather Roundup
Issued by NWS Charleston, SC

Current Version | Previous Version | Graphics & Text | Print | Product List | Glossary Off
Versions: 1 2 3 4 5 6 7 8 9 10 11 12 13 14 15 16 17 18 19 20 21 22 23 24 25 26 27 28 29 30 31 32 33 34 35 36 37 38 39 40 41 42 43 44 45 46 47 48 49 50

000
ASUS42 KCHS 021927
RWRCHS

REGIONAL WEATHER ROUNDUP
NATIONAL WEATHER SERVICE CHARLESTON SC
200 PM EST FRI DEC 02 2016

NOTE: "FAIR" INDICATES FEW OR NO CLOUDS BELOW 12,000 FEET WITH NO
SIGNIFICANT WEATHER AND/OR OBSTRUCTIONS TO VISIBILITY.

NOT ALL STATIONS ARE QUALITY CONTROLLED. USE DATA WITH CAUTION...
ESPECIALLY DEWPOINT OBSERVATIONS.

SCZ027-030-031-034>040-042>050-022000-
...SOUTHEAST SOUTH CAROLINA...

CITY           SKY/WX    TMP DP  RH WIND       PRES   REMARKS
N CHARLESTON   SUNNY     62  33  33 N12       30.13F
WATERFRONT PRK   N/A     59  40  49 N8        30.13F
MOUNT PLEASANT FAIR      61  36  39 NW7       30.13F
JOHNS ISLAND   FAIR      63  36  36 W10       30.13F
PINOPOLIS        N/A     55  37  50 CALM      30.06F
MONCKS CORNER  FAIR      57  32  38 N5        30.13F
SUMMERVILLE    FAIR      61  36  39 NW8       30.15F
BEAUFORT MCAS  SUNNY     62  36  37 NW9       30.15F
BEAUFORT ARPT  FAIR      61  37  41 NW7       30.14F
HILTON HEAD IS SUNNY     61  39  44 NW9       30.15F
WALTERBORO     CLEAR     63  32  31 NW8       30.15F
ALLENDALE      FAIR      61  34  36 VRB5      30.15S

...SOUTHERN MIDLANDS AND PEE DEE...

CITY           SKY/WX    TMP DP  RH WIND       PRES   REMARKS
GEORGETOWN     FAIR      59  34  38 NW8       30.13F
KINGSTREE      FAIR      57  32  38 W8G16     30.14S
ORANGEBURG     SUNNY     60  31  33 NW9       30.15F
BARNWELL       NOT AVBL
AIKEN          FAIR      59  32  36 NW7       30.18F
MANNING        NOT AVBL
COLUMBIA       MOSUNNY   60  32  34 W7        30.14F
SUMTER         SUNNY     59  32  36 NW9       30.12F
FLORENCE       SUNNY     58  33  39 NW9       30.13F
MYRTLE BEACH   SUNNY     59  32  36 N12       30.13F
N MYRTLE BEACH SUNNY     59  33  37 VRB7      30.11F

$$

GAZ063-065-086>088-099>101-113>116-118-119-134>141-150-022000-
...SOUTHEAST GEORGIA...

CITY           SKY/WX    TMP DP  RH WIND       PRES   REMARKS
SAVANNAH ARPT  MOSUNNY   63  35  35 NW8       30.15F
HUNTER AAF     SUNNY     64  42  45 N9        30.12F
FORT STEWART   SUNNY     64  36  35 NW8       30.13F
STATESBORO     SUNNY     62  38  40 NW6       30.15F
SYLVANIA       CLEAR    N/A N/A N/A NW6       30.17S
CLAXTON        FAIR      63  38  39 W7        30.16F

...CSRA...CENTRAL AND FAR SOUTHEAST GEORGIA...

CITY           SKY/WX    TMP DP  RH WIND       PRES   REMARKS
THOMSON        SUNNY     63  34  33 CALM      30.21F
AUGUSTA-BUSH   SUNNY     63  31  30 NW7       30.16F
AUGUSTA-DANIEL SUNNY     59  30  33 VRB5      30.17F
SWAINSBORO     FAIR      61  32  33 NW8       30.17F
VIDALIA        SUNNY     63  39  42 NW8       30.17S
EASTMAN        FAIR      67  -5   5 N7        30.20F
HAZLEHURST     FAIR      65  34  31 N9        30.16S
ALMA           SUNNY     65  33  30 NW9       30.16F
WAYCROSS       SUNNY     69  37  30 N13       30.15F
JESUP          FAIR      64  41  42 N10       30.15F
BAXLEY         FAIR      64  37  36 N9        30.16S
BRUNSWICK      SUNNY     66  41  39 NW8       30.15S
SAINT SIMONS   SUNNY     65  32  29 NW7       30.13F

$$

SCZ027-028-034-036>038-045-046-048>050-GAZ119-141-022000-
...LAKE AND SUPPLEMENTAL COASTAL OBSERVATIONS...

STATION/POSITION TIME  TEMP    WIND        PRES    WAVE   SWELL
                       AIR SEA DIR/SP/G            HT/PER HT/PER/DIR
                 (UTC) (F)     (DEG/KT/KT) (MB)    (FT/S) (FT/S/D)
WINYAH BAY       1845   57     320/  7     1020.0
LAKE MURRAY      1830   56     250/  7/  9 1020.7F
ACE BASIN NERRS  1845   61     330/  3     1020.0F
FORT PULASKI     1900   59 63  320/  7/  9 1020.7
SAPELO ISLAND    1900   64     330/  7     1021.0

$$

ANZ835-935-AMZ111-154-330-350-352-354-370-450-454-472-022000-
...C-MAN AND BUOY OBSERVATIONS...

STATION/POSITION TIME  TEMP    WIND        PRES    WAVE   SWELL
                       AIR SEA DIR/SP/G            HT/PER HT/PER/DIR
                 (UTC) (F)     (DEG/KT/KT) (MB)    (FT/S) (FT/S/D)
BUOY 41004       1850   58 74   10/ 14/ 17 1019.6R   4/ 5   2/140/ 9
BUOY 41008       1850   57 65  320/ 10/ 14 1020.6F   2/ 9   2/ 80/ 9
FOLLY BEACH CMAN 1900   59     350/  6/  8 1021.0F
CAPERS NEARSHORE 1808   56 63   20/  8/ 10 1020.6F
FRIPP NEARSHORE  1908   58 63   10/  8/ 10 1020.4F


STATION/POSITION TIME  TEMP    WIND        PRES    WAVE   SWELL
                       AIR SEA DIR/SP/G            HT/PER HT/PER/DIR
                 (UTC) (F)     (DEG/KT/KT) (MB)    (FT/S) (FT/S/D)
5E ST. MARYS GA  1900      67                N/A     2/ 9
FRYING PAN BUOY  1910   57 74  340/ 14/ 17 1019.0
BUOY 41025       1850   55 77  340/ 10/ 16 1017.6F   4/ 7   3/ 60/ 7
CAPE LOOKOUT NC  1900   55     330/  6/  7 1017.9F
BUOY 41002       1850   70 74  310/ 14/ 17 1016.3F   5/ 7   3/250/ 7
BUOY 41010       NOT AVBL
ST AUGUSTINE FL  1900   60 67   10/ 10/ 12 1021.5F


$$



USA.gov is the U.S. government's official web portal to all federal, state and local government web resources and services.